TimeMST,TemperatureF,Dew PointF,Humidity,Sea Level PressureIn,VisibilityMPH,Wind Direction,Wind SpeedMPH,Gust SpeedMPH,PrecipitationIn,Events,Conditions,WindDirDegrees,DateUTC
12:15 AM,17.6,14.0,86,30.28,10.0,SE,3.5,-,N/A,,Unknown,130,2013-02-25 07:15:00
12:35 AM,15.8,10.4,79,30.28,10.0,Calm,Calm,-,N/A,,Unknown,0,2013-02-25 07:35:00
12:55 AM,12.2,8.6,85,30.29,10.0,WNW,3.5,-,N/A,,Unknown,290,2013-02-25 07:55:00
1:15 AM,12.2,10.4,92,30.29,10.0,Calm,Calm,-,N/A,,Unknown,0,2013-02-25 08:15:00
1:35 AM,15.8,14.0,93,30.29,10.0,SE,3.5,-,N/A,,Unknown,130,2013-02-25 08:35:00
1:55 AM,14.0,8.6,79,30.28,10.0,Calm,Calm,-,N/A,,Unknown,0,2013-02-25 08:55:00
2:15 AM,14.0,10.4,86,30.28,10.0,Calm,Calm,-,N/A,,Unknown,0,2013-02-25 09:15:00
2:35 AM,14.0,8.6,79,30.28,10.0,Calm,Calm,-,N/A,,Unknown,0,2013-02-25 09:35:00
2:55 AM,12.2,10.4,92,30.28,10.0,South,3.5,-,N/A,,Unknown,190,2013-02-25 09:55:00
3:15 AM,12.2,8.6,85,30.28,10.0,Calm,Calm,-,N/A,,Unknown,0,2013-02-25 10:15:00
3:55 AM,12.2,8.6,85,30.27,10.0,SSE,4.6,-,N/A,,Unknown,160,2013-02-25 10:55:00
4:15 AM,15.8,10.4,79,30.27,10.0,SE,3.5,-,N/A,,Unknown,140,2013-02-25 11:15:00
4:35 AM,12.2,6.8,79,30.26,10.0,SE,4.6,-,N/A,,Unknown,130,2013-02-25 11:35:00
4:55 AM,12.2,8.6,85,30.26,10.0,SSE,9.2,-,N/A,,Unknown,150,2013-02-25 11:55:00
5:15 AM,12.2,8.6,85,30.26,10.0,SSE,5.8,-,N/A,,Unknown,160,2013-02-25 12:15:00
5:35 AM,10.4,6.8,85,30.27,10.0,Calm,Calm,-,N/A,,Unknown,0,2013-02-25 12:35:00
5:55 AM,12.2,6.8,79,30.27,10.0,South,4.6,-,N/A,,Unknown,180,2013-02-25 12:55:00
6:15 AM,10.4,8.6,92,30.27,10.0,Calm,Calm,-,N/A,,Unknown,0,2013-02-25 13:15:00
6:35 AM,12.2,6.8,79,30.27,10.0,SE,8.1,-,N/A,,Unknown,140,2013-02-25 13:35:00
6:47 AM,12.2,8.6,85,30.27,15.0,East,5.8,-,N/A,,Partly Cloudy,100,2013-02-25 13:47:00
7:48 AM,12.2,8.6,85,30.27,15.0,SE,4.6,-,N/A,,Partly Cloudy,140,2013-02-25 14:48:00
9:52 AM,21.2,12.2,68,30.25,15.0,SE,9.2,-,N/A,,Partly Cloudy,130,2013-02-25 16:52:00
12:48 PM,30.2,17.6,60,30.14,15.0,SE,4.6,-,N/A,,Partly Cloudy,130,2013-02-25 19:48:00
1:48 PM,32.0,17.6,55,30.09,15.0,Calm,Calm,-,N/A,,Mostly Cloudy,0,2013-02-25 20:48:00
2:52 PM,33.8,17.6,52,30.05,15.0,Variable,4.6,-,N/A,,Mostly Cloudy,0,2013-02-25 21:52:00
3:50 PM,30.2,17.6,60,30.04,15.0,WNW,8.1,-,N/A,,Mostly Cloudy,300,2013-02-25 22:50:00
4:50 PM,32.0,19.4,60,30.01,15.0,Calm,Calm,-,N/A,,Scattered Clouds,0,2013-02-25 23:50:00
6:50 PM,28.4,14.0,55,30.02,15.0,NW,9.2,-,N/A,,Mostly Cloudy,320,2013-02-26 01:50:00
7:52 PM,28.4,17.6,64,30.02,15.0,WNW,18.4,-,N/A,,Mostly Cloudy,300,2013-02-26 02:52:00
8:55 PM,26.6,19.4,74,30.04,15.0,NW,18.4,-,N/A,,Mostly Cloudy,310,2013-02-26 03:55:00
9:15 PM,28.4,17.6,64,30.04,10.0,NW,13.8,-,N/A,,Unknown,320,2013-02-26 04:15:00
9:35 PM,26.6,17.6,69,30.06,10.0,NW,15.0,-,N/A,,Unknown,310,2013-02-26 04:35:00
9:55 PM,26.6,17.6,69,30.07,10.0,NW,11.5,-,N/A,,Unknown,320,2013-02-26 04:55:00
10:15 PM,28.4,17.6,64,30.07,10.0,NNW,9.2,-,N/A,,Unknown,340,2013-02-26 05:15:00
10:35 PM,28.4,17.6,64,30.07,10.0,Calm,Calm,-,N/A,,Unknown,0,2013-02-26 05:35:00
10:55 PM,28.4,21.2,74,30.08,5.0,SSE,4.6,-,N/A,,Unknown,150,2013-02-26 05:55:00
11:15 PM,26.6,23.0,86,30.09,10.0,East,5.8,-,N/A,,Unknown,100,2013-02-26 06:15:00
11:35 PM,26.6,24.8,93,30.08,10.0,East,6.9,-,N/A,,Unknown,90,2013-02-26 06:35:00
11:55 PM,26.6,24.8,93,30.08,10.0,SE,5.8,-,N/A,,Unknown,130,2013-02-26 06:55:00